EJU84TJ EKCH-LIML

Flight info

Callsign EJU84TJ
Flight time 1h 51m
Altitude 37000
Route NEXEN T503 MICOS DCT ZUCKA DCT BERAS DCT OLPIX DCT EKPEB DCT RENTA DCT ATPED M984 LUSIL
Aircraft A320/M-SDE2E3FGHIJ1RWXYZ/LB1

Departure

Time 2026-05-04 14:17
Airport Copenhagen Kastrup Airport (EKCH)

Arrival

Time 2026-05-04 16:09
Airport Milano Linate Airport (LIML)
Time Latitude Longitude Altitude Speed Heading
2026-05-04 13:36 55.62532 12.65837 24 ft 0 kts 359°
2026-05-04 14:06 55.62531 12.65837 24 ft 2 kts 359°
2026-05-04 14:06 55.62515 12.65838 24 ft 2 kts 359°
2026-05-04 14:07 55.62498 12.65838 24 ft 2 kts
2026-05-04 14:07 55.62482 12.65838 24 ft 2 kts
2026-05-04 14:07 55.62468 12.65826 25 ft 2 kts
2026-05-04 14:07 55.62451 12.65820 24 ft 2 kts 311°
2026-05-04 14:08 55.62447 12.65839 29 ft 1 kts 275°
2026-05-04 14:10 55.62447 12.65838 29 ft 1 kts 274°
2026-05-04 14:10 55.62447 12.65826 24 ft 3 kts 272°
2026-05-04 14:11 55.62447 12.65720 24 ft 13 kts 268°
2026-05-04 14:11 55.62440 12.65378 24 ft 15 kts 268°
2026-05-04 14:11 55.62433 12.65226 24 ft 11 kts 242°
2026-05-04 14:12 55.62363 12.65202 24 ft 10 kts 178°
2026-05-04 14:12 55.62292 12.65176 24 ft 11 kts 219°
2026-05-04 14:12 55.62343 12.64899 24 ft 15 kts 303°
2026-05-04 14:13 55.62341 12.64761 25 ft 12 kts 244°
2026-05-04 14:13 55.62304 12.64618 24 ft 13 kts 245°
2026-05-04 14:13 55.62294 12.64580 25 ft 0 kts 245°
2026-05-04 14:13 55.62294 12.64577 25 ft 2 kts 245°
2026-05-04 14:14 55.62270 12.64481 23 ft 15 kts 246°
2026-05-04 14:14 55.62081 12.64244 24 ft 18 kts 206°
2026-05-04 14:14 55.61961 12.64144 25 ft 20 kts 205°
2026-05-04 14:15 55.61757 12.64081 24 ft 7 kts 177°
2026-05-04 14:15 55.61746 12.64082 26 ft 3 kts 177°
2026-05-04 14:16 55.61665 12.64089 27 ft 3 kts 177°
2026-05-04 14:16 55.61614 12.64051 27 ft 6 kts 221°
2026-05-04 14:17 55.61277 12.63526 26 ft 89 kts 221°
2026-05-04 14:17 55.60667 12.62583 28 ft 142 kts 221°
2026-05-04 14:17 55.58970 12.60024 1022 ft 164 kts 226°
2026-05-04 14:18 55.58095 12.58678 1589 ft 177 kts 225°
2026-05-04 14:18 55.55968 12.55515 2294 ft 226 kts 220°
2026-05-04 14:19 55.53235 12.51958 3683 ft 254 kts 220°
2026-05-04 14:19 55.51797 12.50126 4689 ft 256 kts 220°
2026-05-04 14:19 55.50351 12.48293 5664 ft 256 kts 220°
2026-05-04 14:19 55.48898 12.46447 6606 ft 258 kts 220°
2026-05-04 14:20 55.47435 12.44582 7496 ft 260 kts 220°
2026-05-04 14:20 55.45962 12.42706 8393 ft 263 kts 220°
2026-05-04 14:20 55.44476 12.40815 9282 ft 265 kts 220°
2026-05-04 14:21 55.41404 12.36890 10483 ft 290 kts 220°
2026-05-04 14:21 55.39728 12.34742 10965 ft 304 kts 219°
2026-05-04 14:21 55.38001 12.32542 11702 ft 309 kts 219°
2026-05-04 14:21 55.36201 12.30439 12448 ft 316 kts 210°
2026-05-04 14:22 55.34053 12.29323 13198 ft 328 kts 195°
2026-05-04 14:22 55.31794 12.28639 13912 ft 331 kts 195°
2026-05-04 14:22 55.29514 12.27922 14577 ft 334 kts 197°
2026-05-04 14:22 55.27284 12.26827 15223 ft 333 kts 202°
2026-05-04 14:23 55.23081 12.23536 16511 ft 330 kts 221°
2026-05-04 14:23 55.21253 12.21069 17179 ft 333 kts 221°
2026-05-04 14:23 55.19419 12.18570 17838 ft 335 kts 222°
2026-05-04 14:24 55.17571 12.16044 18454 ft 338 kts 222°
2026-05-04 14:24 55.15711 12.13496 19022 ft 341 kts 222°
2026-05-04 14:24 55.13838 12.10927 19589 ft 343 kts 222°
2026-05-04 14:24 55.11956 12.08355 20178 ft 345 kts 222°
2026-05-04 14:25 55.10055 12.05769 20745 ft 347 kts 222°
2026-05-04 14:25 55.06211 12.00563 21850 ft 352 kts 222°
2026-05-04 14:25 55.04274 11.97942 22402 ft 354 kts 222°
2026-05-04 14:26 55.02323 11.95309 22951 ft 356 kts 221°
2026-05-04 14:26 55.00361 11.92664 23494 ft 358 kts 221°
2026-05-04 14:26 54.98390 11.90006 23938 ft 359 kts 222°
2026-05-04 14:26 54.96411 11.87336 24404 ft 360 kts 222°
2026-05-04 14:27 54.94431 11.84666 24857 ft 361 kts 222°
2026-05-04 14:27 54.92442 11.81987 25311 ft 362 kts 222°
2026-05-04 14:27 54.90445 11.79304 25759 ft 363 kts 222°
2026-05-04 14:27 54.88440 11.76617 26203 ft 364 kts 222°
2026-05-04 14:28 54.86458 11.73964 26633 ft 365 kts 222°
2026-05-04 14:28 54.84441 11.71268 27058 ft 366 kts 222°
2026-05-04 14:28 54.82390 11.68534 27487 ft 368 kts 222°
2026-05-04 14:28 54.80387 11.65868 27884 ft 369 kts 222°
2026-05-04 14:29 54.76302 11.60438 28697 ft 372 kts 222°
2026-05-04 14:29 54.72183 11.54967 29477 ft 374 kts 222°
2026-05-04 14:30 54.70114 11.52224 29866 ft 376 kts 222°
2026-05-04 14:30 54.68032 11.49471 30199 ft 377 kts 222°
2026-05-04 14:30 54.63835 11.43938 30755 ft 382 kts 222°
2026-05-04 14:31 54.61713 11.41143 31017 ft 384 kts 222°
2026-05-04 14:31 54.57440 11.35522 31546 ft 388 kts 221°
2026-05-04 14:32 54.53139 11.29898 32204 ft 388 kts 221°
2026-05-04 14:32 54.50989 11.27089 32539 ft 388 kts 221°
2026-05-04 14:32 54.48836 11.24273 32857 ft 389 kts 221°
2026-05-04 14:32 54.46682 11.21461 33192 ft 389 kts 221°
2026-05-04 14:33 54.44525 11.18648 33523 ft 389 kts 221°
2026-05-04 14:33 54.42369 11.15839 33873 ft 389 kts 221°
2026-05-04 14:33 54.40213 11.13034 34168 ft 389 kts 221°
2026-05-04 14:33 54.38050 11.10230 34415 ft 390 kts 221°
2026-05-04 14:34 54.35883 11.07426 34659 ft 391 kts 221°
2026-05-04 14:34 54.33692 11.04672 34881 ft 393 kts 217°
2026-05-04 14:34 54.31264 11.02430 35095 ft 400 kts 207°
2026-05-04 14:34 54.28600 11.00935 35302 ft 407 kts 197°
2026-05-04 14:35 54.25769 11.00288 35511 ft 415 kts 187°
2026-05-04 14:35 54.22872 11.00178 35718 ft 417 kts 187°
2026-05-04 14:35 54.19970 11.00068 35921 ft 418 kts 187°
2026-05-04 14:35 54.17059 10.99949 36129 ft 419 kts 187°
2026-05-04 14:36 54.14143 10.99822 36334 ft 419 kts 187°
2026-05-04 14:36 54.11226 10.99687 36533 ft 420 kts 187°
2026-05-04 14:36 54.08304 10.99552 36729 ft 420 kts 187°
2026-05-04 14:36 54.05381 10.99422 36913 ft 421 kts 186°
2026-05-04 14:37 54.02450 10.99294 36980 ft 422 kts 186°
2026-05-04 14:37 53.96569 10.99039 36986 ft 423 kts 186°
2026-05-04 14:38 53.90689 10.98794 36987 ft 423 kts 186°
2026-05-04 14:38 53.84801 10.98546 36993 ft 423 kts 186°
2026-05-04 14:39 53.78918 10.98290 36992 ft 423 kts 186°
2026-05-04 14:39 53.74025 10.98075 36987 ft 423 kts 186°
2026-05-04 14:40 53.65193 10.97713 36979 ft 423 kts 186°
2026-05-04 14:40 53.59304 10.97460 36971 ft 423 kts 186°
2026-05-04 14:41 53.53413 10.97201 36963 ft 423 kts 186°
2026-05-04 14:42 53.41633 10.96702 36954 ft 423 kts 186°
2026-05-04 14:42 53.35741 10.96464 36950 ft 423 kts 186°
2026-05-04 14:43 53.29860 10.96219 36966 ft 423 kts 187°
2026-05-04 14:43 53.23981 10.95969 36959 ft 422 kts 187°
2026-05-04 14:44 53.18106 10.95724 36969 ft 422 kts 187°
2026-05-04 14:44 53.12245 10.95480 36967 ft 421 kts 187°
2026-05-04 14:45 53.06393 10.95234 36967 ft 420 kts 187°
2026-05-04 14:45 53.00583 10.95001 36970 ft 420 kts 187°
2026-05-04 14:46 52.94711 10.94751 36975 ft 419 kts 187°
2026-05-04 14:46 52.88891 10.94511 36976 ft 418 kts 187°
2026-05-04 14:47 52.83072 10.94256 36972 ft 418 kts 187°
2026-05-04 14:47 52.77265 10.94024 36974 ft 417 kts 187°
2026-05-04 14:48 52.71500 10.93805 36978 ft 417 kts 187°
2026-05-04 14:48 52.65709 10.93567 36979 ft 416 kts 187°
2026-05-04 14:49 52.59922 10.93321 36978 ft 415 kts 187°
2026-05-04 14:49 52.54144 10.93096 36977 ft 415 kts 187°
2026-05-04 14:50 52.48372 10.92874 36983 ft 415 kts 187°
2026-05-04 14:50 52.42600 10.92648 36984 ft 414 kts 187°
2026-05-04 14:51 52.36841 10.92405 36983 ft 414 kts 187°
2026-05-04 14:51 52.31085 10.92172 36978 ft 414 kts 187°
2026-05-04 14:52 52.25324 10.91940 36974 ft 414 kts 187°
2026-05-04 14:52 52.19573 10.91704 36980 ft 414 kts 187°
2026-05-04 14:53 52.13815 10.91469 36980 ft 414 kts 187°
2026-05-04 14:53 52.08064 10.91250 36978 ft 413 kts 187°
2026-05-04 14:54 52.02311 10.91035 36977 ft 413 kts 187°
2026-05-04 14:54 51.96556 10.90811 36975 ft 413 kts 187°
2026-05-04 14:55 51.90805 10.90580 36977 ft 413 kts 187°
2026-05-04 14:55 51.85085 10.90350 36979 ft 413 kts 186°
2026-05-04 14:56 51.79330 10.90126 36979 ft 414 kts 186°
2026-05-04 14:56 51.73576 10.89900 36982 ft 413 kts 186°
2026-05-04 14:57 51.67828 10.89708 36987 ft 415 kts 183°
2026-05-04 14:57 51.62045 10.90826 36988 ft 419 kts 177°
2026-05-04 14:58 51.56273 10.92118 36988 ft 419 kts 177°
2026-05-04 14:58 51.50499 10.93390 36989 ft 418 kts 177°
2026-05-04 14:59 51.44729 10.94639 36987 ft 418 kts 177°
2026-05-04 15:00 51.36078 10.96532 36987 ft 418 kts 177°
2026-05-04 15:00 51.30315 10.97793 36988 ft 418 kts 177°
2026-05-04 15:01 51.21668 10.99673 36994 ft 418 kts 177°
2026-05-04 15:01 51.15908 11.00923 36989 ft 418 kts 177°
2026-05-04 15:02 51.10139 11.02166 36980 ft 418 kts 177°
2026-05-04 15:02 51.04372 11.03408 36978 ft 418 kts 177°
2026-05-04 15:03 50.98598 11.04647 36976 ft 419 kts 176°
2026-05-04 15:03 50.92821 11.05893 36977 ft 419 kts 176°
2026-05-04 15:04 50.87040 11.07133 36981 ft 419 kts 176°
2026-05-04 15:04 50.81261 11.08375 36985 ft 419 kts 176°
2026-05-04 15:05 50.75473 11.09607 36987 ft 419 kts 176°
2026-05-04 15:05 50.69730 11.10827 36990 ft 420 kts 176°
2026-05-04 15:06 50.63903 11.12053 36996 ft 419 kts 176°
2026-05-04 15:07 50.55260 11.13882 36994 ft 420 kts 176°
2026-05-04 15:07 50.49478 11.15103 36994 ft 419 kts 176°
2026-05-04 15:08 50.43690 11.16311 36993 ft 419 kts 176°
2026-05-04 15:08 50.37899 11.17517 36993 ft 420 kts 176°
2026-05-04 15:09 50.32111 11.18732 36995 ft 420 kts 176°
2026-05-04 15:09 50.26324 11.19945 36995 ft 420 kts 176°
2026-05-04 15:10 50.17643 11.21745 36991 ft 420 kts 176°
2026-05-04 15:11 50.08956 11.23548 36990 ft 420 kts 176°
2026-05-04 15:11 50.03168 11.24732 36987 ft 420 kts 176°
2026-05-04 15:12 49.97380 11.25926 36984 ft 420 kts 176°
2026-05-04 15:12 49.91590 11.27119 36985 ft 420 kts 176°
2026-05-04 15:13 49.85795 11.28302 36975 ft 420 kts 176°
2026-05-04 15:13 49.80079 11.29473 36973 ft 420 kts 176°
2026-05-04 15:14 49.74286 11.30660 36983 ft 420 kts 176°
2026-05-04 15:14 49.68488 11.31840 36984 ft 420 kts 176°
2026-05-04 15:15 49.62678 11.33028 36976 ft 421 kts 176°
2026-05-04 15:15 49.56876 11.34198 36974 ft 421 kts 176°
2026-05-04 15:16 49.48165 11.35952 36971 ft 421 kts 176°
2026-05-04 15:17 49.39451 11.37709 36971 ft 421 kts 176°
2026-05-04 15:17 49.30775 11.39450 36967 ft 421 kts 176°
2026-05-04 15:18 49.24962 11.40602 36964 ft 421 kts 176°
2026-05-04 15:19 49.16237 11.42344 36968 ft 422 kts 176°
2026-05-04 15:19 49.07509 11.44075 36962 ft 421 kts 176°
2026-05-04 15:20 49.01692 11.45231 36960 ft 421 kts 176°
2026-05-04 15:20 48.95876 11.46383 36955 ft 421 kts 176°
2026-05-04 15:21 48.90063 11.47523 36952 ft 421 kts 176°
2026-05-04 15:22 48.81333 11.49234 36948 ft 422 kts 176°
2026-05-04 15:22 48.72687 11.50935 36949 ft 422 kts 176°
2026-05-04 15:23 48.66871 11.52068 36946 ft 422 kts 176°
2026-05-04 15:23 48.61047 11.53206 36950 ft 422 kts 175°
2026-05-04 15:24 48.50383 11.55274 36947 ft 422 kts 176°
2026-05-04 15:25 48.44554 11.56395 36946 ft 422 kts 175°
2026-05-04 15:26 48.35773 11.58095 36946 ft 422 kts 175°
2026-05-04 15:26 48.27039 11.59783 36950 ft 422 kts 175°
2026-05-04 15:27 48.18339 11.61440 36953 ft 422 kts 176°
2026-05-04 15:28 48.09570 11.63114 36966 ft 422 kts 175°
2026-05-04 15:29 48.00833 11.64784 36960 ft 421 kts 175°
2026-05-04 15:30 47.80479 11.68618 36938 ft 421 kts 175°
2026-05-04 15:31 47.71754 11.70275 36934 ft 421 kts 175°
2026-05-04 15:32 47.57210 11.72990 36936 ft 421 kts 175°
2026-05-04 15:34 47.42667 11.75707 36944 ft 421 kts 175°
2026-05-04 15:34 47.33985 11.76490 36953 ft 416 kts 191°
2026-05-04 15:35 47.25415 11.74480 36960 ft 416 kts 191°
2026-05-04 15:36 47.16831 11.72513 36972 ft 416 kts 191°
2026-05-04 15:36 47.11110 11.71205 36982 ft 416 kts 191°
2026-05-04 15:37 47.05388 11.69889 36993 ft 416 kts 191°
2026-05-04 15:37 46.99834 11.67775 37017 ft 411 kts 206°
2026-05-04 15:38 46.94642 11.64254 37027 ft 412 kts 206°
2026-05-04 15:38 46.89437 11.60770 37029 ft 412 kts 206°
2026-05-04 15:39 46.84260 11.57321 37036 ft 412 kts 206°
2026-05-04 15:40 46.76391 11.52087 37052 ft 412 kts 206°
2026-05-04 15:40 46.71189 11.48583 37031 ft 411 kts 210°
2026-05-04 15:41 46.66717 11.43516 37020 ft 407 kts 229°
2026-05-04 15:41 46.62908 11.37420 37013 ft 407 kts 228°
2026-05-04 15:42 46.59081 11.31350 37010 ft 407 kts 228°
2026-05-04 15:42 46.55254 11.25285 36997 ft 407 kts 228°
2026-05-04 15:43 46.51432 11.19209 37005 ft 407 kts 229°
2026-05-04 15:43 46.47603 11.13149 37015 ft 407 kts 228°
2026-05-04 15:43 46.45690 11.10127 37129 ft 408 kts 228°
2026-05-04 15:44 46.43770 11.07101 36862 ft 406 kts 228°
2026-05-04 15:44 46.41859 11.04091 36611 ft 406 kts 228°
2026-05-04 15:44 46.39942 11.01076 36351 ft 407 kts 228°
2026-05-04 15:44 46.38025 10.98066 36094 ft 407 kts 228°
2026-05-04 15:45 46.36110 10.95056 35835 ft 406 kts 228°
2026-05-04 15:45 46.34204 10.92070 35481 ft 401 kts 227°
2026-05-04 15:45 46.32317 10.89121 35008 ft 398 kts 227°
2026-05-04 15:45 46.30571 10.86030 34454 ft 396 kts 236°
2026-05-04 15:46 46.29236 10.82568 33898 ft 394 kts 243°
2026-05-04 15:46 46.28021 10.79031 33356 ft 391 kts 243°
2026-05-04 15:46 46.26804 10.75528 32841 ft 388 kts 242°
2026-05-04 15:46 46.25595 10.72050 32324 ft 385 kts 242°
2026-05-04 15:47 46.24395 10.68610 31817 ft 382 kts 242°
2026-05-04 15:47 46.23200 10.65189 31321 ft 380 kts 241°
2026-05-04 15:47 46.22012 10.61796 30829 ft 377 kts 241°
2026-05-04 15:47 46.20830 10.58426 30360 ft 375 kts 240°
2026-05-04 15:48 46.19652 10.55075 29842 ft 373 kts 240°
2026-05-04 15:48 46.18488 10.51755 29394 ft 368 kts 241°
2026-05-04 15:48 46.16196 10.45248 28510 ft 359 kts 241°
2026-05-04 15:49 46.15073 10.42060 28081 ft 356 kts 241°
2026-05-04 15:49 46.13955 10.38884 27646 ft 353 kts 241°
2026-05-04 15:49 46.12847 10.35741 27215 ft 350 kts 241°
2026-05-04 15:49 46.11744 10.32623 26775 ft 348 kts 241°
2026-05-04 15:50 46.10650 10.29530 26333 ft 346 kts 241°
2026-05-04 15:50 46.09559 10.26458 25894 ft 343 kts 242°
2026-05-04 15:50 46.08470 10.23395 25416 ft 343 kts 242°
2026-05-04 15:50 46.07385 10.20343 24969 ft 342 kts 242°
2026-05-04 15:51 46.06302 10.17295 24495 ft 342 kts 242°
2026-05-04 15:51 46.05177 10.14284 24024 ft 341 kts 236°
2026-05-04 15:51 46.03718 10.11656 23529 ft 341 kts 224°
2026-05-04 15:51 46.01882 10.09511 23015 ft 340 kts 213°
2026-05-04 15:52 45.99870 10.07737 22553 ft 339 kts 212°
2026-05-04 15:52 45.97874 10.05963 22099 ft 337 kts 212°
2026-05-04 15:52 45.95882 10.04187 21649 ft 336 kts 212°
2026-05-04 15:52 45.93900 10.02423 21192 ft 335 kts 212°
2026-05-04 15:53 45.91927 10.00665 20760 ft 333 kts 212°
2026-05-04 15:53 45.89957 9.98913 20317 ft 332 kts 213°
2026-05-04 15:53 45.87996 9.97174 19884 ft 331 kts 213°
2026-05-04 15:53 45.86039 9.95440 19446 ft 329 kts 213°
2026-05-04 15:54 45.84093 9.93719 19020 ft 328 kts 213°
2026-05-04 15:54 45.82152 9.92005 18600 ft 328 kts 213°
2026-05-04 15:54 45.80212 9.90296 18124 ft 327 kts 213°
2026-05-04 15:54 45.78273 9.88591 17705 ft 325 kts 213°
2026-05-04 15:55 45.76351 9.86899 17289 ft 323 kts 212°
2026-05-04 15:55 45.74447 9.85222 16887 ft 321 kts 212°
2026-05-04 15:55 45.72549 9.83550 16483 ft 320 kts 212°
2026-05-04 15:55 45.70655 9.81883 16091 ft 318 kts 212°
2026-05-04 15:56 45.68773 9.80227 15695 ft 317 kts 212°
2026-05-04 15:56 45.66899 9.78580 15304 ft 316 kts 212°
2026-05-04 15:56 45.65025 9.76939 14913 ft 315 kts 212°
2026-05-04 15:56 45.63216 9.75255 14780 ft 305 kts 214°
2026-05-04 15:57 45.61485 9.73543 14516 ft 301 kts 215°
2026-05-04 15:57 45.59782 9.71818 14205 ft 300 kts 215°
2026-05-04 15:57 45.58085 9.70092 13874 ft 298 kts 215°
2026-05-04 15:57 45.56398 9.68386 13519 ft 297 kts 215°
2026-05-04 15:58 45.54714 9.66692 13279 ft 295 kts 214°
2026-05-04 15:58 45.53038 9.65016 12970 ft 294 kts 214°
2026-05-04 15:58 45.51366 9.63354 12694 ft 292 kts 214°
2026-05-04 15:58 45.49703 9.61706 12362 ft 290 kts 214°
2026-05-04 15:59 45.48056 9.60074 12010 ft 288 kts 214°
2026-05-04 15:59 45.46428 9.58459 11467 ft 283 kts 214°
2026-05-04 15:59 45.44817 9.56861 10839 ft 280 kts 213°
2026-05-04 15:59 45.43225 9.55283 10240 ft 277 kts 213°
2026-05-04 16:00 45.41662 9.53737 9586 ft 275 kts 213°
2026-05-04 16:00 45.40079 9.52171 9064 ft 275 kts 213°
2026-05-04 16:00 45.38507 9.50617 8636 ft 275 kts 213°
2026-05-04 16:00 45.36934 9.49064 8127 ft 275 kts 213°
2026-05-04 16:01 45.35362 9.47516 7744 ft 274 kts 213°
2026-05-04 16:01 45.33831 9.46010 7617 ft 262 kts 213°
2026-05-04 16:01 45.32345 9.44578 7448 ft 254 kts 208°
2026-05-04 16:01 45.30737 9.43697 7372 ft 244 kts 191°
2026-05-04 16:02 45.29077 9.43545 7233 ft 236 kts 175°
2026-05-04 16:02 45.27438 9.43725 6988 ft 236 kts 175°
2026-05-04 16:02 45.24248 9.42719 6027 ft 245 kts 226°
2026-05-04 16:03 45.23440 9.40603 5440 ft 253 kts 260°
2026-05-04 16:03 45.23259 9.38092 4855 ft 258 kts 266°
2026-05-04 16:03 45.23134 9.35582 4330 ft 251 kts 266°
2026-05-04 16:03 45.23026 9.33222 4196 ft 230 kts 268°
2026-05-04 16:04 45.23314 9.31094 3977 ft 217 kts 303°
2026-05-04 16:04 45.25914 9.29676 3676 ft 206 kts 355°
2026-05-04 16:04 45.26858 9.29594 3562 ft 203 kts 354°
2026-05-04 16:05 45.28244 9.29454 3310 ft 197 kts 353°
2026-05-04 16:05 45.29595 9.29310 3051 ft 192 kts 354°
2026-05-04 16:05 45.32166 9.29036 2558 ft 176 kts 353°
2026-05-04 16:06 45.33355 9.28909 2322 ft 168 kts 353°
2026-05-04 16:06 45.36657 9.28556 1733 ft 151 kts 353°
2026-05-04 16:07 45.37709 9.28434 1524 ft 152 kts 352°
2026-05-04 16:07 45.40831 9.28090 886 ft 149 kts 353°
2026-05-04 16:08 45.41865 9.27983 695 ft 148 kts 352°
2026-05-04 16:08 45.44676 9.27689 363 ft 73 kts 356°
2026-05-04 16:09 45.45312 9.27662 362 ft 27 kts 24°
2026-05-04 16:09 45.45452 9.27786 361 ft 0 kts 55°
2026-05-04 16:11 45.45631 9.27816 360 ft 18 kts
2026-05-04 16:11 45.45764 9.27818 360 ft 19 kts
2026-05-04 16:12 45.45909 9.27951 363 ft 6 kts 72°
2026-05-04 16:12 45.45973 9.27967 360 ft 0 kts 360°